Location: Vihti�l�
(61.3833°N, 23.0667°E)
Time: 05:49:53
(UTC+00:00)

Cosmos 1048 Rocket - Pass Details

Date: 29 November 2020
Orbit: 744 x 791 km, 74.0° (Epoch: 22 January)

Event Time Altitude Azimuth Distance (km) Brightness Sun altitude
Exits shadow 03:40:01 31° 337° (NNW) 1,339 5.0 -23.1°
Maximum altitude 03:42:31 66° 50° (NE) 851 4.3 -22.8°
Drops below altitude 10° 03:47:44 10° 133° (SE) 2,306 7.2 -22.2°
Sets 03:50:06 0° 136° (SE) 3,222 8.0 -21.9°
